Showing default

EXPLORER 16, 506

Orbit data source: Space-Track

EXPLORER 16, 506 is a payload satellite owned by NASA LaRC (US) in LEO that was launched on Sun, 16 Dec 1962 UTC via an SCOUT X-3 launch vehicle from the Wallops Island (WLPIS). Payloads include a variety of satellites, spacecraft, and rockets equipped with specific instruments for various scientific and technological missions. These include communications satellites like Starlink; space stations such as the ISS; scientific satellites like the Hubble; Earth observation satellites from companies like Planet Labs, Umbra, and HawkEye 360; GPS; miniature CubeSats for education and research; and military/defense satellites.

Loading next visibility...
EXPLORER 16 details
Identifier
506, 1962-070A
Orbit
LEO
Last TLE update20 hours ago
Origin
Flag of USNASA LaRC (US)
ManufacturerNASA LaRC
MissionCivil Science
Bus & MotorS-55, Unknown motor
Mass100 kg wet, 76 kg dry
Launch date (UTC)
1962-12-16 (62 years ago)
Launch vehicle
SCOUT X-3
Launch site
Wallops Island (WLPIS)
Object type
Payload
Rocket body
Debris
Shape & HBRCyl, 1.93 m
Radar Cross Section1.071 m², Medium (>0.1 m² and < 1m²)

Expand to show TLE details & history

TLE from 20 hours ago
0 EXPLORER 16
1 00506U 62070A   25024.16940479  .00000046  00000-0  12464-3 0  9999
2 00506  52.0006 195.3069 0276506   5.3951 354.9848 13.85635393138186
Epoch: 2025-01-24T04:03Z
Definitive object data (Epoch: 2025-01-24T04:03:56.573Z)
Latitude-0.00005°
Longitude10.58471°
Altitude743.056 km
Speed7.587 km/s
True Right ascension13h 01m 13s
True Declination0° 00' 00"
Sunlit
Object was in daylight at TLE epoch
Visualization TLE readout
Latitude12.23453°
Longitude177.74998°
Altitude1,129.025 km
Speed7.198 km/s
Apparent Right ascension22h 24m 30s
Apparent Declination-40° 28' 60"
Sunlit
Object is in daylight
Visualization observer readout
Local Sidereal Time01:11:09
Azimuth210.377° SW
Elevation1.102°
Doppler factor1
Orbital elements
Apogee altitude1,146.856 km
Perigee altitude741.912 km
Semi-major axis7,322.521 km
Eccentricity0.0276506
Inclination52.0006°
RAAN195.3069°
Arg. of periapsis5.3951°
True anomaly354.69795°
Mean anomaly354.9848°
Eccentric anomaly354.84238°
Mean motion3.4638 °/min
BSTAR0.00012464
Orbital period103.93 mins
Loading maneuver chart data...
Loading historical data...
Loading historical data...
Loading historical data...
Loading historical data...
Loading historical data...
Loading historical data...
Loading historical data...
Other satellites on launch #70 in the year 1962 (1962-12-16 UTC)

EXPLORER 16 Visibility forecast

Observer location: undefined°, undefined

Span
Click to sort rows by Start time (UTC) header in descending order
Start Az.
Max El. time (UTC)
Max El. Az.
Max El.
End time (UTC)
End Az.
9 mins2025-01-25 13:06:25.454Z196.961° SSW2025-01-25 13:10:25.454Z129.379° SE33.558°2025-01-25 13:15:25.454Z63.644° ENE
9 mins2025-01-25 14:55:25.454Z267.305° W2025-01-25 14:58:25.454Z319.943° NNW35.96°2025-01-25 15:04:25.454Z46.342° ENE
8 mins2025-01-25 16:45:25.454Z312.219° NW2025-01-25 16:48:25.454Z353.366° N23.706°2025-01-25 16:53:25.454Z49.906° ENE
10 mins2025-01-25 18:34:25.454Z321.692° NNW2025-01-25 18:38:25.454Z14.235° NNE29.19°2025-01-25 18:44:25.454Z81.807° E
11 mins2025-01-25 20:23:25.454Z308.908° NW2025-01-25 20:28:25.454Z111.481° ESE44.492°2025-01-25 20:34:25.454Z127.931° SE
9 mins2025-01-25 22:12:25.454Z275.152° WNW2025-01-25 22:16:25.454Z230.835° WSW22.623°2025-01-25 22:21:25.454Z184.17° SSW
|